Sigfox identifier Datetime Temperature Humidity SNR
003B5CE8 2019-02-20 14:06:28 20.7 23 25.7
003B5CE8 2019-02-20 13:34:11 20.8 24 25.7
003B5CE8 2019-02-20 13:01:55 20.8 24 25.3
003B5CE8 2019-02-20 12:29:38 20.7 25 24.8
003B5CE8 2019-02-20 11:57:21 20.7 26 24.9
003B5CE8 2019-02-20 11:25:05 20.7 27 24.5
003B5CE8 2019-02-20 10:52:48 20.7 27 23.8
003B5CE8 2019-02-20 10:20:32 20.7 27 24
003B5CE8 2019-02-20 09:48:16 20.7 27 24.2
003B5CE8 2019-02-20 09:16:00 20.6 27 23.6
003B5CE8 2019-02-20 08:43:43 20.6 27 23
003B5CE8 2019-02-20 08:11:26 20.6 27 22.9
003B5CE8 2019-02-20 07:39:11 20.6 27 22.7
003B5CE8 2019-02-20 07:06:51 20.6 28 22.6
003B5CE8 2019-02-20 06:34:34 20.6 28 22.5
003B5CE8 2019-02-20 06:02:17 20.6 27 22.4
003B5CE8 2019-02-20 05:30:00 20.6 27 22.1
003B5CE8 2019-02-20 04:57:43 20.6 27 22.1
003B5CE8 2019-02-20 04:25:26 20.7 27 21.9
003B5CE8 2019-02-20 03:53:09 20.7 27 21.6
003B5CE8 2019-02-20 03:20:52 20.7 27 22.6
003B5CE8 2019-02-20 02:48:37 20.7 27 22.2
003B5CE8 2019-02-20 02:16:18 20.7 27 22.1
003B5CE8 2019-02-20 01:44:01 20.7 27 22
003B5CE8 2019-02-20 01:11:44 20.7 27 22
003B5CE8 2019-02-20 00:39:26 20.7 27 21.9
003B5CE8 2019-02-20 00:07:09 20.7 27 22.8
003B5CE8 2019-02-19 23:34:52 20.7 27 22.6
003B5CE8 2019-02-19 23:02:35 20.7 27 22.4
003B5CE8 2019-02-19 22:30:19 20.7 27 22.3
003B5CE8 2019-02-19 21:58:04 20.7 27 22
003B5CE8 2019-02-19 21:25:47 20.8 27 21.9
003B5CE8 2019-02-19 20:53:31 20.8 27 21.6
003B5CE8 2019-02-19 20:21:14 20.8 27 21.3
003B5CE8 2019-02-19 19:48:58 20.8 27 21.1
003B5CE8 2019-02-19 19:16:41 20.8 27 20.8
003B5CE8 2019-02-19 18:44:23 20.9 27 20.6
003B5CE8 2019-02-19 18:12:06 20.9 27 20.4
003B5CE8 2019-02-19 17:39:52 21 27 20.2
003B5CE8 2019-02-19 17:07:33 21 28 21.5
003B5CE8 2019-02-19 16:35:17 21 28 21.6
003B5CE8 2019-02-19 16:02:59 21 28 21.6
003B5CE8 2019-02-19 15:30:43 20.9 27 21.6
003B5CE8 2019-02-19 14:58:25 21 27 21.6
003B5CE8 2019-02-19 14:26:09 21 27 21.6
003B5CE8 2019-02-19 13:53:52 21 27 20.2
003B5CE8 2019-02-19 13:21:34 21 27 20.3
003B5CE8 2019-02-19 12:49:17 21 27 20.3
003B5CE8 2019-02-19 12:16:18 21 27 20.3
003B5CE8 2019-02-19 11:44:01 21 27 20.3
003B5CE8 2019-02-19 11:11:45 21 27 20.2
003B5CE8 2019-02-19 10:39:27 20.9 26 18.2
003B5CE8 2019-02-19 10:07:11 20.8 26 18.2
003B5CE8 2019-02-19 09:34:57 20.7 26 18.3
003B5CE8 2019-02-19 09:02:37 20.7 26 18.4
003B5CE8 2019-02-19 08:30:25 20.7 26 18.4
003B5CE8 2019-02-19 07:58:04 20.7 25 18.4
003B5CE8 2019-02-19 07:25:47 20.7 25 18.5
003B5CE8 2019-02-19 06:53:33 20.7 25 18.4
003B5CE8 2019-02-19 06:21:14 20.7 25 18.5
003B5CE8 2019-02-19 05:48:57 20.7 25 18.5
003B5CE8 2019-02-19 05:16:40 20.7 25 20.4
003B5CE8 2019-02-19 04:44:24 20.7 25 20.3
003B5CE8 2019-02-19 04:12:05 20.7 25 20.2
003B5CE8 2019-02-19 03:39:49 20.7 24 18.5
003B5CE8 2019-02-19 03:07:35 20.7 24 19
003B5CE8 2019-02-19 02:35:16 20.7 24 19.3
003B5CE8 2019-02-19 02:03:00 20.7 24 19.4
003B5CE8 2019-02-19 01:30:44 20.7 24 19.4
003B5CE8 2019-02-19 00:58:27 20.7 24 19.4
003B5CE8 2019-02-19 00:26:10 20.7 24 19.5
003B5CE8 2019-02-18 23:53:53 20.7 24 19.6
003B5CE8 2019-02-18 23:21:37 20.7 23 19.6
003B5CE8 2019-02-18 22:49:21 20.7 23 19.6
003B5CE8 2019-02-18 22:17:05 20.7 23 20.1
003B5CE8 2019-02-18 21:44:48 20.7 23 20.4
003B5CE8 2019-02-18 21:12:32 20.7 23 20.7
003B5CE8 2019-02-18 20:40:16 20.7 23 21.1
003B5CE8 2019-02-18 20:07:59 20.7 22 21.2
003B5CE8 2019-02-18 19:35:42 20.7 22 21.4
003B5CE8 2019-02-18 19:03:28 20.7 22 21.6
003B5CE8 2019-02-18 18:31:10 20.8 22 21.9
003B5CE8 2019-02-18 17:58:53 20.8 22 22.2
003B5CE8 2019-02-18 17:26:37 20.8 22 22.4
003B5CE8 2019-02-18 16:54:20 20.8 22 22.7
003B5CE8 2019-02-18 16:22:03 20.9 22 23
003B5CE8 2019-02-18 15:17:28 20.9 21 22.4
003B5CE8 2019-02-18 14:45:11 21 21 22.8
003B5CE8 2019-02-18 14:12:54 21 21 23
003B5CE8 2019-02-18 13:40:37 21.1 20 23.3
003B5CE8 2019-02-18 13:08:20 21.2 20 23.4
003B5CE8 2019-02-18 12:36:04 21.4 19 23.5
003B5CE8 2019-02-18 12:03:48 21.5 19 23.7
003B5CE8 2019-02-18 11:31:31 21.4 19 23.8
003B5CE8 2019-02-18 10:59:18 21.4 19 24.1
003B5CE8 2019-02-18 10:26:59 21.4 19 24.2
003B5CE8 2019-02-18 09:54:43 21.3 19 24.3
003B5CE8 2019-02-18 09:21:44 21.2 19 24.5
003B5CE8 2019-02-18 08:49:30 21.2 18 24.7
003B5CE8 2019-02-18 08:17:11 21.1 18 24.7
003B5CE8 2019-02-18 07:44:53 21 18 24.8
003B5CE8 2019-02-18 07:12:37 21 18 24.8
003B5CE8 2019-02-18 06:40:21 21 18 24.8
003B5CE8 2019-02-18 06:08:05 21 18 24.9
003B5CE8 2019-02-18 05:35:50 21 18 25
003B5CE8 2019-02-18 05:03:33 21 18 25.1
003B5CE8 2019-02-18 04:31:18 21 18 25.1
003B5CE8 2019-02-18 03:59:02 21 18 25.1
003B5CE8 2019-02-18 03:26:46 21 18 25.2
003B5CE8 2019-02-18 02:54:31 21 19 25.3
003B5CE8 2019-02-18 02:22:16 21 19 25.3
003B5CE8 2019-02-18 01:50:00 21 19 25.3
003B5CE8 2019-02-18 01:17:44 21 19 25.3
003B5CE8 2019-02-18 00:45:27 21 19 25.2
003B5CE8 2019-02-18 00:13:11 21 19 25.1
003B5CE8 2019-02-17 23:40:54 21 19 25.1
003B5CE8 2019-02-17 23:08:37 21 19 25.1
003B5CE8 2019-02-17 22:36:21 21 19 25.2
003B5CE8 2019-02-17 22:04:05 21 19 25.2
003B5CE8 2019-02-17 21:31:48 21 19 25.1
003B5CE8 2019-02-17 20:59:31 21 19 25.1
003B5CE8 2019-02-17 20:27:15 21.1 19 25.1
003B5CE8 2019-02-17 19:54:58 21.1 19 25
003B5CE8 2019-02-17 19:22:42 21.1 20 25
003B5CE8 2019-02-17 18:50:26 21.1 20 25.2
003B5CE8 2019-02-17 18:18:09 21.1 20 25.3
003B5CE8 2019-02-17 17:45:51 21.1 19 25.4
003B5CE8 2019-02-17 17:13:35 21.2 20 25.4
003B5CE8 2019-02-17 16:41:18 21.2 20 25.5
003B5CE8 2019-02-17 16:09:01 21.2 20 25.6
003B5CE8 2019-02-17 15:36:44 21.2 20 25.6
003B5CE8 2019-02-17 15:04:28 21.2 20 25.5
003B5CE8 2019-02-17 14:32:10 21.2 20 25.5
003B5CE8 2019-02-17 13:59:53 21.2 20 25.4
003B5CE8 2019-02-17 13:27:36 21.3 20 25.3
003B5CE8 2019-02-17 12:55:19 21.2 20 25.2
003B5CE8 2019-02-17 12:23:02 21.2 20 25.2
003B5CE8 2019-02-17 11:50:45 21.1 20 25.2
003B5CE8 2019-02-17 11:18:28 21.1 20 25.3
003B5CE8 2019-02-17 10:46:11 21.1 21 25.3
003B5CE8 2019-02-17 10:13:55 21.1 21 25.4
003B5CE8 2019-02-17 09:41:38 21.1 21 25.4
003B5CE8 2019-02-17 09:09:20 21 21 25.3
003B5CE8 2019-02-17 08:37:04 21 21 25.4
003B5CE8 2019-02-17 08:04:47 21.1 21 25.5
003B5CE8 2019-02-17 07:32:29 21 21 25.5
003B5CE8 2019-02-17 07:00:12 21.1 21 25.6
003B5CE8 2019-02-17 06:27:14 21.1 22 25.7
003B5CE8 2019-02-17 05:54:56 21.1 22 25.8
003B5CE8 2019-02-17 05:22:39 21.1 22 25.7
003B5CE8 2019-02-17 04:50:21 21.1 22 25.6
003B5CE8 2019-02-17 04:18:05 21.1 23 25.5
003B5CE8 2019-02-17 03:45:49 21.1 23 25.6
003B5CE8 2019-02-17 03:13:32 21.1 23 25.8
003B5CE8 2019-02-17 02:41:15 21.1 23 25.8
003B5CE8 2019-02-17 02:08:58 21.1 24 25.7
003B5CE8 2019-02-17 01:36:41 21.1 24 25.9
003B5CE8 2019-02-17 01:04:24 21.1 24 26.2
003B5CE8 2019-02-17 00:32:06 21.1 24 26.3
003B5CE8 2019-02-16 23:59:49 21.1 24 26.2
003B5CE8 2019-02-16 23:27:32 21.2 24 26.4
003B5CE8 2019-02-16 22:55:15 21.1 24 26.6
003B5CE8 2019-02-16 22:22:57 21.2 25 26.7
003B5CE8 2019-02-16 21:50:40 21.2 25 26.7
003B5CE8 2019-02-16 21:18:23 21.2 25 26.8
003B5CE8 2019-02-16 20:46:06 21.2 25 26.7
003B5CE8 2019-02-16 20:13:49 21.2 25 26.8
003B5CE8 2019-02-16 19:41:33 21.2 25 26.8
003B5CE8 2019-02-16 19:09:17 21.2 25 26.8
003B5CE8 2019-02-16 18:37:00 21.2 25 26.8
003B5CE8 2019-02-16 18:04:43 21.2 25 26.8
003B5CE8 2019-02-16 17:32:26 21.3 25 26.8
003B5CE8 2019-02-16 17:00:09 21.4 25 26.8
003B5CE8 2019-02-16 16:27:53 21.4 25 26.7
003B5CE8 2019-02-16 15:55:36 21.4 25 26.9
003B5CE8 2019-02-16 15:23:19 21.5 25 26.9
003B5CE8 2019-02-16 14:51:02 21.5 25 26.9
003B5CE8 2019-02-16 14:18:46 21.5 25 26.8
003B5CE8 2019-02-16 13:46:29 21.4 25 26.6
003B5CE8 2019-02-16 13:14:12 21.4 25 26.6
003B5CE8 2019-02-16 12:41:54 21.3 25 26.6
003B5CE8 2019-02-16 12:09:37 21.3 25 26.5
003B5CE8 2019-02-16 11:37:19 21.3 25 26.3
003B5CE8 2019-02-16 11:05:03 21.3 25 26.2
003B5CE8 2019-02-16 10:32:46 21.2 25 26.1
003B5CE8 2019-02-16 10:00:30 21.2 25 26
003B5CE8 2019-02-16 09:28:12 21.2 25 25.8
003B5CE8 2019-02-16 08:55:56 21.1 25 25.7
003B5CE8 2019-02-16 08:23:39 21.2 25 25.7
003B5CE8 2019-02-16 07:51:23 21.2 25 25.9
003B5CE8 2019-02-16 07:19:06 21.2 25 25.9
003B5CE8 2019-02-16 06:46:48 21.2 25 25.9
003B5CE8 2019-02-16 06:14:31 21.2 25 26
003B5CE8 2019-02-16 05:42:14 21.2 25 25.7
003B5CE8 2019-02-16 05:09:58 21.2 25 25.6
003B5CE8 2019-02-16 04:37:40 21.2 25 25.5
003B5CE8 2019-02-16 04:05:22 21.2 25 25.5
003B5CE8 2019-02-16 03:32:23 21.2 25 25.4
003B5CE8 2019-02-16 03:00:06 21.3 25 25.3
003B5CE8 2019-02-16 02:27:50 21.2 25 24.8
003B5CE8 2019-02-16 01:55:32 21.2 25 24.8
003B5CE8 2019-02-16 01:23:15 21.2 25 24.7
003B5CE8 2019-02-16 00:50:57 21.3 26 24.7
003B5CE8 2019-02-16 00:18:40 21.3 26 24.6
003B5CE8 2019-02-15 23:46:22 21.3 26 24.4
003B5CE8 2019-02-15 23:14:05 21.3 26 24.3
003B5CE8 2019-02-15 22:41:48 21.3 26 24.2
003B5CE8 2019-02-15 22:09:31 21.4 25 24
003B5CE8 2019-02-15 21:37:14 21.4 26 24.2
003B5CE8 2019-02-15 21:04:56 21.5 25 24.1
003B5CE8 2019-02-15 20:32:38 21.5 25 24.1
003B5CE8 2019-02-15 20:00:21 21.5 25 23.9
003B5CE8 2019-02-15 19:28:03 21.6 25 23.9
003B5CE8 2019-02-15 18:55:46 21.7 25 23.9
003B5CE8 2019-02-15 18:23:28 21.7 25 23.5
003B5CE8 2019-02-15 17:51:10 21.8 25 23.3
003B5CE8 2019-02-15 17:18:54 21.8 25 23.3
003B5CE8 2019-02-15 16:46:37 21.8 24 23.3
003B5CE8 2019-02-15 16:14:20 21.7 24 23.3
003B5CE8 2019-02-15 15:42:02 21.8 24 23.4
003B5CE8 2019-02-15 15:09:45 21.8 24 23.5
003B5CE8 2019-02-15 14:37:27 21.8 24 24
003B5CE8 2019-02-15 14:05:10 21.8 24 24
003B5CE8 2019-02-15 13:32:53 21.8 24 24
003B5CE8 2019-02-15 13:00:34 21.7 24 24.1
003B5CE8 2019-02-15 12:28:18 21.6 24 24.1
003B5CE8 2019-02-15 11:56:01 21.6 24 24.2
003B5CE8 2019-02-15 11:23:45 21.6 24 24.4
003B5CE8 2019-02-15 10:51:27 21.5 25 24.5
003B5CE8 2019-02-15 10:19:10 21.5 25 24.6
003B5CE8 2019-02-15 09:46:53 21.4 25 24.9
003B5CE8 2019-02-15 09:14:35 21.4 25 25
003B5CE8 2019-02-15 08:42:17 21.4 25 25
003B5CE8 2019-02-15 08:10:00 21.3 25 25
003B5CE8 2019-02-15 07:37:42 21.3 25 25
003B5CE8 2019-02-15 07:05:25 21.3 25 25.1
003B5CE8 2019-02-15 06:33:06 21.3 25 25.1
003B5CE8 2019-02-15 06:00:50 21.3 25 25
003B5CE8 2019-02-15 05:28:32 21.3 25 24.9
003B5CE8 2019-02-15 04:56:14 21.3 26 24.8
003B5CE8 2019-02-15 04:23:58 21.3 26 24.9
003B5CE8 2019-02-15 03:51:40 21.3 26 24.8
003B5CE8 2019-02-15 03:19:23 21.3 26 24.6
003B5CE8 2019-02-15 02:47:07 21.4 26 24.5
003B5CE8 2019-02-15 02:14:50 21.4 26 24.4
003B5CE8 2019-02-15 01:42:33 21.4 26 24.4
003B5CE8 2019-02-15 01:10:15 21.4 26 23.8
003B5CE8 2019-02-15 00:37:17 21.4 26 23.8
003B5CE8 2019-02-15 00:04:59 21.4 26 23.6
003B5CE8 2019-02-14 23:32:41 21.4 25 23.4
003B5CE8 2019-02-14 23:00:23 21.4 25 23.3
003B5CE8 2019-02-14 22:28:05 21.4 25 23.1
003B5CE8 2019-02-14 21:55:47 21.5 25 22.9
003B5CE8 2019-02-14 21:23:29 21.5 25 22.8
003B5CE8 2019-02-14 20:51:12 21.5 25 22.8
003B5CE8 2019-02-14 20:18:55 21.6 24 22.6
003B5CE8 2019-02-14 19:46:38 21.6 24 22.5
003B5CE8 2019-02-14 19:14:20 21.7 24 22.4
003B5CE8 2019-02-14 18:42:03 21.7 24 22.4
003B5CE8 2019-02-14 18:09:45 21.8 24 22.2
003B5CE8 2019-02-14 17:37:28 21.8 24 22.1
003B5CE8 2019-02-14 17:05:10 21.8 24 22.4
003B5CE8 2019-02-14 16:32:52 21.9 24 22.6
003B5CE8 2019-02-14 16:00:34 21.8 24 22.5
003B5CE8 2019-02-14 15:28:17 21.8 24 22.5
003B5CE8 2019-02-14 14:55:59 21.7 24 22.5
003B5CE8 2019-02-14 14:23:42 21.6 24 23.3
003B5CE8 2019-02-14 13:51:25 21.5 24 23.3
003B5CE8 2019-02-14 13:19:08 21.5 24 23.5
003B5CE8 2019-02-14 12:46:50 21.3 23 23.7
003B5CE8 2019-02-14 12:14:31 21.3 24 23.5
003B5CE8 2019-02-14 11:42:13 21.3 24 23.6
003B5CE8 2019-02-14 11:09:56 21.3 24 23.7
003B5CE8 2019-02-14 10:37:37 21 24 23.8
003B5CE8 2019-02-14 10:05:20 21 24 23.9
003B5CE8 2019-02-14 09:33:02 21 24 23.9
003B5CE8 2019-02-14 09:00:44 20.8 24 24.1
003B5CE8 2019-02-14 08:28:26 20.8 24 24.2
003B5CE8 2019-02-14 07:56:08 20.8 25 24.2
003B5CE8 2019-02-14 07:23:51 20.8 25 24
003B5CE8 2019-02-14 06:51:33 20.8 25 23.9
003B5CE8 2019-02-14 06:19:15 20.8 25 23.8
003B5CE8 2019-02-14 05:46:56 20.8 25 23.7
003B5CE8 2019-02-14 05:14:39 20.9 25 23.7
003B5CE8 2019-02-14 04:42:21 20.9 25 23.7
003B5CE8 2019-02-14 04:10:03 20.8 25 23.7
003B5CE8 2019-02-14 03:37:45 20.9 25 23.6
003B5CE8 2019-02-14 03:05:28 20.9 25 23.7
003B5CE8 2019-02-14 02:33:10 20.9 25 23.6
003B5CE8 2019-02-14 02:00:53 20.9 25 23.5
003B5CE8 2019-02-14 01:28:34 20.9 25 23.3
003B5CE8 2019-02-14 00:56:17 20.9 25 22.5
003B5CE8 2019-02-14 00:23:58 20.9 25 22.5
003B5CE8 2019-02-13 23:51:40 20.9 25 23.1
003B5CE8 2019-02-13 23:19:21 20.9 25 22.9
003B5CE8 2019-02-13 22:47:03 20.9 25 22.9
003B5CE8 2019-02-13 22:14:44 21 25 22.8
003B5CE8 2019-02-13 21:41:45 21.1 25 22.8
003B5CE8 2019-02-13 21:09:27 21.1 25 22.9
003B5CE8 2019-02-13 20:37:09 21.2 25 23
003B5CE8 2019-02-13 20:04:50 21.2 25 23.7
003B5CE8 2019-02-13 19:32:32 21.3 25 23.7
003B5CE8 2019-02-13 19:00:14 21.4 25 23.5
003B5CE8 2019-02-13 18:27:56 21.5 26 23.5
003B5CE8 2019-02-13 17:55:38 21.5 26 23.5
003B5CE8 2019-02-13 17:23:20 21.5 26 23.6
003B5CE8 2019-02-13 16:51:03 21.4 26 23.7
003B5CE8 2019-02-13 16:18:45 21.3 25 23.8
003B5CE8 2019-02-13 15:46:28 21.2 25 23.8
003B5CE8 2019-02-13 15:14:10 21.2 25 23.9
003B5CE8 2019-02-13 14:41:54 21.2 24 23.8
003B5CE8 2019-02-13 14:09:35 21.2 24 23.8
003B5CE8 2019-02-13 13:37:18 21.2 24 23.6
003B5CE8 2019-02-13 13:05:01 21.2 24 23.6
003B5CE8 2019-02-13 12:32:44 21.1 24 23.6
003B5CE8 2019-02-13 12:00:27 21.1 24 23.7
003B5CE8 2019-02-13 11:28:12 21.1 24 23.7
003B5CE8 2019-02-13 10:55:52 21 24 23.8
003B5CE8 2019-02-13 10:23:36 20.9 23 23
003B5CE8 2019-02-13 09:51:19 20.9 23 23
003B5CE8 2019-02-13 09:19:01 20.8 22 23
003B5CE8 2019-02-13 08:46:43 20.8 21 23
003B5CE8 2019-02-13 08:14:25 20.8 21 22.9
003B5CE8 2019-02-13 07:42:08 20.8 20 22.9
003B5CE8 2019-02-13 07:09:51 20.8 19 22.8
003B5CE8 2019-02-13 06:37:34 20.8 19 21.8
003B5CE8 2019-02-13 06:05:17 20.8 19 21.5
003B5CE8 2019-02-13 05:32:59 20.8 19 21.5
003B5CE8 2019-02-13 05:00:43 20.8 19 21.6
003B5CE8 2019-02-13 04:28:25 20.8 19 21.3
003B5CE8 2019-02-13 03:56:08 20.9 19 21
003B5CE8 2019-02-13 03:23:51 20.8 19 20.9
003B5CE8 2019-02-13 02:51:33 20.9 19 20.6
003B5CE8 2019-02-13 02:19:16 20.8 19 20.4
003B5CE8 2019-02-13 01:46:59 20.9 19 20.4
003B5CE8 2019-02-13 01:14:40 20.9 19 20.4
003B5CE8 2019-02-13 00:42:25 20.9 19 20.1
003B5CE8 2019-02-13 00:10:07 21 20 20.1
003B5CE8 2019-02-12 23:37:51 21 20 20.1
003B5CE8 2019-02-12 23:05:33 21 19 20
003B5CE8 2019-02-12 22:33:16 21 19 19.9
003B5CE8 2019-02-12 22:00:58 21.1 20 19.6
003B5CE8 2019-02-12 21:28:42 21.2 20 19.5
003B5CE8 2019-02-12 20:56:25 21.3 21 19.6
003B5CE8 2019-02-12 20:24:09 21.3 21 19.8
003B5CE8 2019-02-12 19:51:53 21.5 20 20
003B5CE8 2019-02-12 19:19:37 21.5 20 20
003B5CE8 2019-02-12 18:46:38 21.5 20 19.7
003B5CE8 2019-02-12 18:14:21 21.5 19 19.4
003B5CE8 2019-02-12 17:42:04 21.6 19 19.6
003B5CE8 2019-02-12 17:09:48 21.7 19 19.7
003B5CE8 2019-02-12 16:37:32 21.8 19 19.9
003B5CE8 2019-02-12 16:05:16 21.9 19 19.9
003B5CE8 2019-02-12 15:33:00 21.8 19 19.9
003B5CE8 2019-02-12 15:00:42 21.7 19 20.5
003B5CE8 2019-02-12 14:28:25 21.5 19 20.4
003B5CE8 2019-02-12 13:56:10 21.3 20 20.3
003B5CE8 2019-02-12 13:23:51 21.3 20 20.3
003B5CE8 2019-02-12 12:51:34 21.3 20 20.5
003B5CE8 2019-02-12 12:19:16 21.3 20 20.6
003B5CE8 2019-02-12 11:46:59 21.3 21 20.6
003B5CE8 2019-02-12 11:14:42 21.3 21 21
003B5CE8 2019-02-12 10:42:25 21.3 22 20.9
003B5CE8 2019-02-12 10:10:08 21.1 22 21.1
003B5CE8 2019-02-12 09:37:52 21 23 21
003B5CE8 2019-02-12 09:05:36 21 23 21.3
003B5CE8 2019-02-12 08:33:19 20.8 24 21.7
003B5CE8 2019-02-12 08:01:02 20.8 24 21.9
003B5CE8 2019-02-12 07:28:45 20.8 25 22
003B5CE8 2019-02-12 06:56:27 20.8 26 22.2
003B5CE8 2019-02-12 06:24:09 20.8 26 22
003B5CE8 2019-02-12 05:51:51 20.8 26 22
003B5CE8 2019-02-12 05:19:33 20.9 26 22.1
003B5CE8 2019-02-12 04:47:17 20.9 26 22.2
003B5CE8 2019-02-12 04:14:58 20.9 26 22.1
003B5CE8 2019-02-12 03:42:39 20.9 27 22.3
003B5CE8 2019-02-12 03:10:22 20.9 27 22.2
003B5CE8 2019-02-12 02:38:04 20.9 27 22.4
003B5CE8 2019-02-12 02:05:46 20.9 27 22.3
003B5CE8 2019-02-12 01:33:30 20.9 27 22
003B5CE8 2019-02-12 01:01:13 20.9 27 22.2
003B5CE8 2019-02-12 00:28:55 21 27 22.4
003B5CE8 2019-02-11 23:56:36 21 27 22.7
003B5CE8 2019-02-11 23:24:19 21 27 22.7
003B5CE8 2019-02-11 22:52:01 21.1 27 22.8
003B5CE8 2019-02-11 22:19:43 21.1 27 22.8
003B5CE8 2019-02-11 21:47:25 21.2 27 22.5
003B5CE8 2019-02-11 21:15:07 21.2 27 22.7
003B5CE8 2019-02-11 20:42:50 21.3 27 22.7
003B5CE8 2019-02-11 20:10:31 21.4 27 23
003B5CE8 2019-02-11 19:38:13 21.5 27 22.9
003B5CE8 2019-02-11 19:05:55 21.6 27 22.1
003B5CE8 2019-02-11 18:33:36 21.7 27 21.5
003B5CE8 2019-02-11 18:01:17 21.9 27 21
003B5CE8 2019-02-11 17:28:57 22 28 15.4
003B5CE8 2019-02-11 16:56:38 22.1 28 13.7
003B5CE8 2019-02-11 16:24:18 22 32 0